Weather History for Alpena, MI

Change the Weather History Date:

Saturday, October 19, 2013

  Actual Average Record
Temperature  
Mean Temperature 40 °F 45 °F  
Max Temperature 49 °F 55 °F 78 °F (1953)
Min Temperature 30 °F 35 °F 20 °F (1934)
Degree Days  
Heating Degree Days 25 20  
Month to date heating degree days 243 320  
Since 1 July heating degree days 627 677  
Cooling Degree Days 0 0  
Month to date cooling degree days 0 0  
Year to date cooling degree days 343 289  
Moisture  
Dew Point 40 °F    
Average Humidity 83    
Maximum Humidity 100    
Minimum Humidity 65    
Precipitation  
Precipitation 0.09 in 0.08 in 1.02 in (1917)
Month to date precipitation 2.85 1.68  
Year to date precipitation 26.51 23.38  
Snow  
Snow 0.00 in 0.00 in 2.90 in (1930)
Month to date snowfall 0.0 0.1  
Since 1 July snowfall 0.0 0.1  
Snow Depth 0.00 in    
Sea Level Pressure  
Sea Level Pressure 29.73 in    
Wind  
Wind Speed 3 mph (West)    
Max Wind Speed 16 mph    
Max Gust Speed 23 mph    
Visibility 10 miles    
Events Rain    
T = Trace of Precipitation, MM = Missing Value Source: NWS Daily Summary

Daily Weather History Graph

Daily Weather History Graph

Search for Another Location

Airport:

Trip Planner

Search our weather history database for the weather conditions in past years. The results will help you decide how hot, cold, wet, or windy it might be!

Date:

Astronomy

Oct. 19, 2013 Rise Set
Actual Time 7:55 AM EDT 6:41 PM EDT
Civil Twilight 7:25 AM EDT 7:11 PM EDT
Nautical Twilight 6:51 AM EDT 7:45 PM EDT
Astronomical Twilight 6:17 AM EDT 8:19 PM EDT
Moon 7:05 PM EDT 8:34 AM EDT
Length of Visible Light 11h 46m
Length of Day
10h 46m
Waxing Gibbous, 99% of the Moon is Illuminated
Oct 19
Waxing Gibbous
Oct 26
Last Quarter
Nov 3
New
Nov 10
First Quarter
Nov 17
Full

Hourly Weather History & Observations

Time (EDT) Temp. Windchill Dew Point Humidity Pressure Visibility Wind Dir Wind Speed Gust Speed Precip Events Conditions
12:54 AM 44.1 °F 42.5 °F 42.1 °F 93% 29.80 in 10.0 mi SW 3.5 mph - N/A   Partly Cloudy
1:54 AM 44.1 °F - 43.0 °F 96% 29.79 in 10.0 mi Calm Calm - N/A   Overcast
2:54 AM 43.0 °F - 42.1 °F 97% 29.78 in 10.0 mi Calm Calm - N/A   Overcast
3:54 AM 44.1 °F - 43.0 °F 96% 29.76 in 10.0 mi Calm Calm - N/A   Mostly Cloudy
4:47 AM 44.6 °F - 42.8 °F 93% 29.75 in 10.0 mi Calm Calm - N/A   Overcast
4:54 AM 44.1 °F - 43.0 °F 96% 29.75 in 10.0 mi Calm Calm - N/A   Overcast
5:33 AM 44.6 °F 43.1 °F 42.8 °F 93% 29.74 in 10.0 mi SSW 3.5 mph - N/A   Overcast
5:54 AM 44.1 °F - 43.0 °F 96% 29.75 in 2.5 mi Calm Calm - 0.01 in Rain Light Rain
6:13 AM 44.6 °F - 44.6 °F 100% 29.73 in 5.0 mi Calm Calm - 0.01 in Rain Light Rain
6:54 AM 44.1 °F - 43.0 °F 96% 29.73 in 8.0 mi Calm Calm - 0.01 in Rain Light Rain
7:04 AM 44.6 °F - 42.8 °F 93% 29.72 in 9.0 mi Calm Calm - 0.00 in Rain Light Rain
7:14 AM 44.6 °F - 42.8 °F 93% 29.72 in 9.0 mi Calm Calm - 0.00 in Rain Light Rain
7:32 AM 44.6 °F - 42.8 °F 93% 29.72 in 10.0 mi Calm Calm - 0.00 in   Overcast
7:52 AM 44.6 °F 41.4 °F 42.8 °F 93% 29.72 in 10.0 mi West 5.8 mph - 0.00 in   Overcast
7:54 AM 44.1 °F 42.5 °F 43.0 °F 96% 29.74 in 10.0 mi WSW 3.5 mph - 0.00 in   Overcast
8:54 AM 43.0 °F 41.3 °F 42.1 °F 97% 29.74 in 10.0 mi West 3.5 mph - N/A   Overcast
9:05 AM 44.6 °F 43.1 °F 42.8 °F 93% 29.72 in 10.0 mi WSW 3.5 mph - N/A   Overcast
9:54 AM 44.1 °F 40.8 °F 43.0 °F 96% 29.74 in 10.0 mi WSW 5.8 mph - 0.01 in Rain Light Rain
10:25 AM 44.6 °F 43.1 °F 44.6 °F 100% 29.72 in 10.0 mi WSW 3.5 mph - 0.01 in Rain Light Rain
10:54 AM 45.0 °F 42.6 °F 43.0 °F 93% 29.73 in 10.0 mi West 4.6 mph - 0.01 in Rain Light Rain
11:16 AM 44.6 °F 40.7 °F 42.8 °F 93% 29.71 in 10.0 mi WNW 6.9 mph - 0.00 in Rain Light Rain
11:54 AM 45.0 °F 41.8 °F 42.1 °F 90% 29.73 in 7.0 mi WNW 5.8 mph - 0.01 in Rain Light Rain
12:25 PM 41.0 °F 34.7 °F 37.4 °F 87% 29.71 in 10.0 mi WNW 10.4 mph 23.0 mph 0.02 in Rain Light Rain
12:54 PM 41.0 °F 34.7 °F 37.9 °F 89% 29.71 in 10.0 mi North 10.4 mph - 0.04 in Rain Light Rain
1:54 PM 44.1 °F 41.5 °F 41.0 °F 89% 29.70 in 10.0 mi WNW 4.6 mph - 0.00 in   Overcast
2:54 PM 45.0 °F 41.8 °F 39.0 °F 80% 29.69 in 10.0 mi West 5.8 mph - N/A   Overcast
3:54 PM 46.9 °F - 37.9 °F 71% 29.68 in 10.0 mi WNW 8.1 mph 16.1 mph N/A   Partly Cloudy
4:54 PM 48.9 °F - 37.0 °F 64% 29.68 in 10.0 mi NW 6.9 mph - N/A   Scattered Clouds
5:54 PM 46.9 °F - 35.1 °F 63% 29.69 in 10.0 mi WNW 6.9 mph - N/A   Clear
6:54 PM 44.1 °F 42.5 °F 34.0 °F 68% 29.71 in 10.0 mi West 3.5 mph - N/A   Clear
7:54 PM 41.0 °F - 33.1 °F 73% 29.73 in 10.0 mi Calm Calm - N/A   Clear
8:54 PM 39.9 °F 37.8 °F 33.1 °F 77% 29.74 in 10.0 mi SW 3.5 mph - N/A   Clear
9:54 PM 37.9 °F 35.5 °F 33.1 °F 83% 29.75 in 10.0 mi WSW 3.5 mph - N/A   Clear
10:54 PM 37.0 °F - 33.1 °F 86% 29.76 in 10.0 mi Calm Calm - N/A   Clear
11:54 PM 30.0 °F - 28.9 °F 96% 29.76 in 10.0 mi Calm Calm - N/A   Clear